| time (UTC) | temp C | wind direction | speed KPH | gust KPH | rain 1hr cm | rain 24hr cm | rain mn cm | humidity % | barometer mb |
| 20260505041520 | 15 | 302 | 1.6 | 3.2 | 0.00 | 0.00 | 0.00 | 69 | 1032.2 |
| 20260505040517 | 15 | 296 | 3.2 | 6.4 | 0.00 | 0.00 | 0.00 | 68 | 1032.2 |
| 20260505035614 | 16 | 345 | 3.2 | 9.7 | 0.00 | 0.00 | 0.00 | 67 | 1032.2 |
| 20260505034612 | 16 | 261 | 3.2 | 9.7 | 0.00 | 0.00 | 0.00 | 67 | 1032.3 |
| 20260505033609 | 16 | 275 | 4.8 | 11.3 | 0.00 | 0.00 | 0.00 | 67 | 1032.3 |
| 20260505032607 | 16 | 308 | 4.8 | 11.3 | 0.00 | 0.00 | 0.00 | 67 | 1032.3 |
| 20260505031605 | 17 | 52 | 1.6 | 6.4 | 0.00 | 0.00 | 0.00 | 65 | 1032.2 |
| 20260505030643 | 16 | 258 | 3.2 | 6.4 | 0.00 | 0.00 | 0.00 | 67 | 1032.2 |
| 20260505025603 | 16 | 277 | 6.4 | 14.5 | 0.00 | 0.00 | 0.00 | 67 | 1032.3 |
| 20260505024557 | 16 | 247 | 6.4 | 17.7 | 0.00 | 0.00 | 0.00 | 67 | 1032.2 |
| 20260505023554 | 16 | 104 | 1.6 | 6.4 | 0.00 | 0.00 | 0.00 | 66 | 1032.3 |
| 20260505022612 | 16 | 257 | 3.2 | 9.7 | 0.00 | 0.00 | 0.00 | 67 | 1032.3 |
| 20260505021609 | 16 | 244 | 9.7 | 20.9 | 0.00 | 0.00 | 0.00 | 67 | 1032.3 |
| 20260505020547 | 16 | 259 | 4.8 | 14.5 | 0.00 | 0.00 | 0.00 | 66 | 1032.5 |
| 20260505015543 | 16 | 259 | 6.4 | 17.7 | 0.00 | 0.00 | 0.00 | 68 | 1032.5 |
| 20260505014541 | 16 | 267 | 4.8 | 11.3 | 0.00 | 0.00 | 0.00 | 68 | 1032.5 |
| 20260505013604 | 15 | 259 | 6.4 | 17.7 | 0.00 | 0.00 | 0.00 | 70 | 1032.7 |
| 20260505012537 | 16 | 289 | 8.0 | 17.7 | 0.00 | 0.00 | 0.00 | 68 | 1032.9 |
| 20260505011534 | 15 | 224 | 6.4 | 14.5 | 0.00 | 0.00 | 0.00 | 67 | 1033.0 |
| 20260505010530 | 15 | 292 | 4.8 | 11.3 | 0.00 | 0.00 | 0.00 | 68 | 1033.2 |
| 20260505005528 | 15 | 276 | 6.4 | 20.9 | 0.00 | 0.00 | 0.00 | 67 | 1033.3 |
| 20260505004546 | 15 | 259 | 9.7 | 25.7 | 0.00 | 0.00 | 0.00 | 68 | 1033.5 |
| 20260505003523 | 15 | 220 | 3.2 | 12.9 | 0.00 | 0.00 | 0.00 | 66 | 1033.6 |
| 20260505002521 | 15 | 244 | 8.0 | 20.9 | 0.00 | 0.00 | 0.00 | 68 | 1033.7 |
| 20260505001518 | 15 | 332 | 1.6 | 11.3 | 0.00 | 0.00 | 0.00 | 67 | 1033.8 |
| 20260505000636 | 15 | 291 | 4.8 | 17.7 | 0.00 | 0.00 | 0.00 | 68 | 1034.0 |
| 20260504235612 | 14 | 292 | 8.0 | 20.9 | 0.00 | 0.00 | 0.00 | 70 | 1034.2 |
| 20260504234611 | 15 | 222 | 9.7 | 20.9 | 0.00 | 0.00 | 0.00 | 69 | 1034.5 |
| 20260504233608 | 15 | 293 | 6.4 | 14.5 | 0.00 | 0.00 | 0.00 | 69 | 1034.5 |
| 20260504232605 | 14 | 319 | 1.6 | 6.4 | 0.00 | 0.00 | 0.00 | 70 | 1034.6 |
| 20260504231644 | 14 | 349 | 6.4 | 17.7 | 0.00 | 0.00 | 0.00 | 70 | 1034.6 |
| 20260504230600 | 14 | 247 | 3.2 | 14.5 | 0.00 | 0.00 | 0.00 | 70 | 1034.9 |
| 20260504225557 | 13 | 263 | 6.4 | 14.5 | 0.00 | 0.00 | 0.00 | 71 | 1034.8 |
| 20260504224554 | 13 | 288 | 9.7 | 17.7 | 0.00 | 0.00 | 0.00 | 71 | 1034.7 |
| 20260504223551 | 13 | 288 | 11.3 | 22.5 | 0.00 | 0.00 | 0.00 | 71 | 1034.6 |
| 20260504222549 | 13 | 292 | 6.4 | 12.9 | 0.00 | 0.00 | 0.00 | 73 | 1034.6 |
| 20260504221548 | 13 | 316 | 6.4 | 12.9 | 0.00 | 0.00 | 0.00 | 73 | 1034.5 |
| 20260504220544 | 13 | 353 | 6.4 | 12.9 | 0.00 | 0.00 | 0.00 | 73 | 1034.6 |
| 20260504215541 | 13 | 330 | 4.8 | 9.7 | 0.00 | 0.00 | 0.00 | 71 | 1034.6 |
| 20260504214539 | 13 | 328 | 4.8 | 12.9 | 0.00 | 0.00 | 0.00 | 72 | 1034.6 |
| 20260504213537 | 14 | 1 | 4.8 | 9.7 | 0.00 | 0.00 | 0.00 | 71 | 1034.6 |
| 20260504212534 | 13 | 331 | 6.4 | 12.9 | 0.00 | 0.00 | 0.00 | 72 | 1034.8 |
| 20260504211531 | 13 | 14 | 4.8 | 9.7 | 0.00 | 0.00 | 0.00 | 72 | 1034.8 |
| 20260504210530 | 12 | 12 | 6.4 | 12.9 | 0.00 | 0.00 | 0.00 | 73 | 1034.8 |
| 20260504205527 | 12 | 13 | 4.8 | 9.7 | 0.00 | 0.00 | 0.00 | 73 | 1034.9 |
| 20260504204523 | 12 | 333 | 8.0 | 17.7 | 0.00 | 0.00 | 0.00 | 74 | 1034.9 |
| 20260504203520 | 12 | 337 | 6.4 | 17.7 | 0.00 | 0.00 | 0.00 | 76 | 1034.8 |
| 20260504202517 | 11 | 332 | 6.4 | 20.9 | 0.00 | 0.00 | 0.00 | 79 | 1034.8 |
| 20260504201616 | 11 | 1 | 9.7 | 17.7 | 0.00 | 0.00 | 0.00 | 80 | 1034.8 |
| 20260504200612 | 11 | 2 | 6.4 | 14.5 | 0.00 | 0.00 | 0.00 | 81 | 1034.8 |
| 20260504195609 | 11 | 27 | 4.8 | 11.3 | 0.00 | 0.00 | 0.00 | 79 | 1034.7 |
| 20260504194607 | 10 | 56 | 4.8 | 12.9 | 0.00 | 0.00 | 0.00 | 80 | 1034.6 |
| 20260504193604 | 11 | 61 | 3.2 | 6.4 | 0.00 | 0.00 | 0.00 | 76 | 1034.6 |
| 20260504192602 | 11 | 53 | 6.4 | 12.9 | 0.00 | 0.00 | 0.00 | 76 | 1034.5 |
| 20260504191600 | 11 | 33 | 3.2 | 6.4 | 0.00 | 0.00 | 0.00 | 75 | 1034.5 |
| 20260504190557 | 11 | 63 | 4.8 | 11.3 | 0.00 | 0.00 | 0.00 | 76 | 1034.3 |
| 20260504185553 | 11 | 65 | 9.7 | 25.7 | 0.00 | 0.00 | 0.00 | 75 | 1034.4 |
| 20260504184551 | 11 | 43 | 6.4 | 11.3 | 0.00 | 0.00 | 0.00 | 75 | 1034.4 |
| 20260504183553 | 11 | 83 | 4.8 | 11.3 | 0.00 | 0.00 | 0.00 | 76 | 1034.3 |
| 20260504182607 | 11 | 53 | 4.8 | 12.9 | 0.00 | 0.00 | 0.00 | 75 | 1034.4 |
| 20260504181548 | 11 | 53 | 6.4 | 14.5 | 0.00 | 0.00 | 0.00 | 75 | 1034.4 |
| 20260504180545 | 11 | 95 | 6.4 | 12.9 | 0.00 | 0.00 | 0.00 | 75 | 1034.4 |
| 20260504175539 | 11 | 119 | 4.8 | 11.3 | 0.00 | 0.00 | 0.00 | 76 | 1034.5 |
| 20260504174617 | 11 | 143 | 1.6 | 6.4 | 0.00 | 0.00 | 0.00 | 77 | 1034.5 |
| 20260504173535 | 11 | 123 | 3.2 | 12.9 | 0.00 | 0.00 | 0.00 | 76 | 1034.6 |
| 20260504172531 | 11 | 83 | 3.2 | 11.3 | 0.00 | 0.00 | 0.00 | 76 | 1034.5 |
| 20260504171548 | 11 | 94 | 6.4 | 22.5 | 0.00 | 0.00 | 0.00 | 76 | 1034.6 |
| 20260504170525 | 11 | 63 | 3.2 | 9.7 | 0.00 | 0.00 | 0.00 | 77 | 1034.6 |
| 20260504150554 | 12 | 298 | 4.8 | 17.7 | 0.00 | 0.00 | 0.00 | 74 | 1035.0 |
| 20260504140539 | 12 | 26 | 4.8 | 14.5 | 0.00 | 0.00 | 0.00 | 75 | 1035.3 |
| 20260504130524 | 12 | 35 | 3.2 | 11.3 | 0.00 | 0.00 | 0.00 | 77 | 1035.5 |
| 20260504110557 | 12 | 50 | 3.2 | 6.4 | 0.00 | 0.00 | 0.00 | 76 | 1035.7 |
| 20260504100559 | 12 | 35 | 0.0 | 3.2 | 0.00 | 0.00 | 0.00 | 78 | 1035.8 |
| 20260504081609 | 11 | 34 | 1.6 | 6.4 | 0.00 | 0.00 | 0.00 | 81 | 1035.3 |
| 20260504080606 | 11 | 350 | 3.2 | 6.4 | 0.00 | 0.00 | 0.00 | 81 | 1035.2 |
| 20260504050520 | 12 | 327 | 6.4 | 17.7 | 0.00 | 0.00 | 0.00 | 76 | 1034.4 |